H1 CPF 2 NER 2025 10 2 9 275 01 glonass132 H2 1401201 9132 39620 2025 10 2 0 0 0 2025 10 5 23 45 0 900 1 1 0 0 0 1 H9 10 0 60950 0.00000 0 -15646396.889 19880677.024 3428491.898 10 0 60950 900.00000 0 -15638697.440 20176032.783 207459.203 10 0 60950 1800.00000 0 -15377146.884 20148936.985 -3017589.610 10 0 60950 2700.00000 0 -14909951.937 19769474.841 -6184127.625 10 0 60950 3600.00000 0 -14291563.203 19019795.890 -9230719.904 10 0 60950 4500.00000 0 -13580210.453 17895052.360 -12098212.888 10 0 60950 5400.00000 0 -12835290.739 16403808.173 -14730882.715 10 0 60950 6300.00000 0 -12114719.290 14567899.442 -17077520.109 10 0 60950 7200.00000 0 -11472354.974 12421750.267 -19092430.482 10 0 60950 8100.00000 0 -10955609.169 10011170.294 -20736329.543 10 0 60950 9000.00000 0 -10603339.483 7391682.286 -21977116.540 10 0 60950 9900.00000 0 -10444117.933 4626447.723 -22790509.571 10 0 60950 10800.00000 0 -10494947.667 1783875.445 -23160529.988 10 0 60950 11700.00000 0 -10760483.515 -1064988.165 -23079825.732 10 0 60950 12600.00000 0 -11232790.534 -3849179.464 -22549826.495 10 0 60950 13500.00000 0 -11891651.950 -6500535.401 -21580726.820 10 0 60950 14400.00000 0 -12705414.667 -8956295.804 -20191296.592 10 0 60950 15300.00000 0 -13632337.506 -11161481.435 -18408521.794 10 0 60950 16200.00000 0 -14622385.809 -13070948.359 -16267081.898 10 0 60950 17100.00000 0 -15619396.769 -14651032.595 -13808673.590 10 0 60950 18000.00000 0 -16563523.626 -15880716.195 -11081193.975 10 0 60950 18900.00000 0 -17393854.753 -16752266.157 -8137799.394 10 0 60950 19800.00000 0 -18051095.776 -17271320.065 -5035858.874 10 0 60950 20700.00000 0 -18480200.051 -17456415.952 -1835823.613 10 0 60950 21600.00000 0 -18632834.925 -17337987.757 1399964.177 10 0 60950 22500.00000 0 -18469578.275 -16956870.643 4608498.429 10 0 60950 23400.00000 0 -17961751.539 -16362381.347 7727347.003 10 0 60950 24300.00000 0 -17092811.216 -15610056.790 10695874.680 10 0 60950 25200.00000 0 -15859239.946 -14759148.408 13456426.615 10 0 60950 26100.00000 0 -14270899.758 -13869979.680 15955448.570 10 0 60950 27000.00000 0 -12350833.109 -13001279.479 18144522.119 10 0 60950 27900.00000 0 -10134520.605 -12207604.270 19981295.159 10 0 60950 28800.00000 0 -7668627.117 -11536957.676 21430290.523 10 0 60950 29700.00000 0 -5009289.103 -11028706.937 22463578.325 10 0 60950 30600.00000 0 -2220014.616 -10711882.746 23061300.536 10 0 60950 31500.00000 0 630716.783 -10603932.458 23212039.218 10 0 60950 32400.00000 0 3472055.283 -10709977.495 22913022.833 10 0 60950 33300.00000 0 6233476.444 -11022604.654 22170167.921 10 0 60950 34200.00000 0 8847460.923 -11522198.942 20997956.297 10 0 60950 35100.00000 0 11252049.058 -12177803.232 19419150.658 10 0 60950 36000.00000 0 13393166.355 -12948468.411 17464354.191 10 0 60950 36900.00000 0 15226625.329 -13785037.588 15171422.350 10 0 60950 37800.00000 0 16719722.384 -14632290.040 12584737.517 10 0 60950 38700.00000 0 17852364.888 -15431355.767 9754359.600 10 0 60950 39600.00000 0 18617682.692 -16122300.118 6735067.963 10 0 60950 40500.00000 0 19022099.427 -16646770.775 3585312.121 10 0 60950 41400.00000 0 19084861.055 -16950596.449 366090.439 10 0 60950 42300.00000 0 18837041.533 -16986228.267 -2860222.256 10 0 60950 43200.00000 0 18320067.130 -16714921.019 -6031076.180 10 0 60950 44100.00000 0 17583821.012 -16108561.877 -9084954.378 10 0 60950 45000.00000 0 16684407.337 -15151068.546 -11962563.602 10 0 60950 45900.00000 0 15681668.501 -13839296.553 -14607985.252 10 0 60950 46800.00000 0 14636559.686 -12183415.605 -16969763.954 10 0 60950 47700.00000 0 13608491.093 -10206737.073 -19001912.377 10 0 60950 48600.00000 0 12652749.803 -7944997.524 -20664812.443 10 0 60950 49500.00000 0 11818110.073 -5445125.967 -21925994.991 10 0 60950 50400.00000 0 11144733.210 -2763544.221 -22760782.182 10 0 60950 51300.00000 0 10662446.115 35930.558 -23152779.555 10 0 60950 52200.00000 0 10389471.834 2884495.239 -23094207.421 10 0 60950 53100.00000 0 10331666.504 5710982.653 -22586064.360 10 0 60950 54000.00000 0 10482295.790 8444587.578 -21638118.749 10 0 60950 54900.00000 0 10822361.033 11017583.457 -20268727.641 10 0 60950 55800.00000 0 11321462.053 13367916.554 -18504485.677 10 0 60950 56700.00000 0 11939160.509 15441569.053 -16379710.239 10 0 60950 57600.00000 0 12626786.274 17194592.051 -13935772.390 10 0 60950 58500.00000 0 13329610.091 18594723.113 -11220286.568 10 0 60950 59400.00000 0 13989289.839 19622520.598 -8286175.060 10 0 60950 60300.00000 0 14546485.790 20271967.451 -5190626.096 10 0 60950 61200.00000 0 14943532.805 20550519.789 -1993966.918 10 0 60950 62100.00000 0 15127054.871 20478599.462 1241524.963 10 0 60950 63000.00000 0 15050409.928 20088553.529 4452847.735 10 0 60950 63900.00000 0 14675860.299 19423126.444 7577513.111 10 0 60950 64800.00000 0 13976376.089 18533511.457 10554770.605 10 0 60950 65700.00000 0 12936994.836 17477065.450 13326793.431 10 0 60950 66600.00000 0 11555679.941 16314785.375 15839802.337 10 0 60950 67500.00000 0 9843641.899 15108654.044 18045105.401 10 0 60950 68400.00000 0 7825109.230 13918967.848 19900034.049 10 0 60950 69300.00000 0 5536559.164 12801759.052 21368757.936 10 0 60950 70200.00000 0 3025440.662 11806420.541 22422964.215 10 0 60950 71100.00000 0 348443.212 10973631.709 23042389.513 10 0 60950 72000.00000 0 -2430616.631 10333671.061 23215195.937 10 0 60950 72900.00000 0 -5243203.652 9905184.520 22938185.377 10 0 60950 73800.00000 0 -8018668.323 9694459.293 22216849.253 10 0 60950 74700.00000 0 -10686940.382 9695232.064 21065253.758 10 0 60950 75600.00000 0 -13181201.602 9889038.270 19505763.325 10 0 60950 76500.00000 0 -15440428.762 10246086.901 17568607.788 10 0 60950 77400.00000 0 -17411703.145 10726623.771 15291301.297 10 0 60950 78300.00000 0 -19052192.427 11282726.102 12717923.527 10 0 60950 79200.00000 0 -20330724.087 11860453.505 9898276.156 10 0 60950 80100.00000 0 -21228886.022 12402265.631 6886929.841 10 0 60950 81000.00000 0 -21741609.302 12849605.565 3742179.033 10 0 60950 81900.00000 0 -21877209.184 13145540.919 524923.788 10 0 60950 82800.00000 0 -21656882.710 13237351.842 -2702500.633 10 0 60950 83700.00000 0 -21113683.758 13078956.981 -5877524.396 10 0 60950 84600.00000 0 -20291018.069 12633074.847 -8938551.189 10 0 60950 85500.00000 0 -19240720.897 11873028.667 -11826150.553 10 0 60951 0.00000 0 -18020797.549 10784117.534 -14484211.175 10 0 60951 900.00000 0 -16692920.605 9364493.751 -16861034.062 10 0 60951 1800.00000 0 -15319790.275 7625508.928 -18910340.572 10 0 60951 2700.00000 0 -13962466.479 5591510.017 -20592180.188 10 0 60951 3600.00000 0 -12677786.387 3299092.781 -21873716.331 10 0 60951 4500.00000 0 -11515975.537 795841.031 -22729875.851 10 0 60951 5400.00000 0 -10518553.441 -1861397.778 -23143848.737 10 0 60951 6300.00000 0 -9716622.232 -4608630.491 -23107427.585 10 0 60951 7200.00000 0 -9129610.961 -7377142.832 -22621179.420 10 0 60951 8100.00000 0 -8764528.980 -10096130.524 -21694445.678 10 0 60951 9000.00000 0 -8615760.441 -12695427.838 -20345169.466 10 0 60951 9900.00000 0 -8665408.946 -15108219.823 -18599552.661 10 0 60951 10800.00000 0 -8884178.025 -17273624.869 -16491548.855 10 0 60951 11700.00000 0 -9232750.112 -19139039.264 -14062201.554 10 0 60951 12600.00000 0 -9663605.299 -20662145.194 -11358840.428 10 0 60951 13500.00000 0 -10123202.062 -21812497.729 -8434151.487 10 0 60951 14400.00000 0 -10554426.508 -22572624.116 -5345139.883 10 0 60951 15300.00000 0 -10899204.962 -22938589.468 -2152006.601 10 0 60951 16200.00000 0 -11101167.651 -22920005.819 1083037.866 10 0 60951 17100.00000 0 -11108249.058 -22539485.316 4296998.291 10 0 60951 18000.00000 0 -10875113.406 -21831562.206 7427332.579 10 0 60951 18900.00000 0 -10365301.451 -20841130.887 10413177.324 10 0 60951 19800.00000 0 -9553007.026 -19621467.803 13196536.153 10 0 60951 20700.00000 0 -8424407.913 -18231922.364 15723407.103 10 0 60951 21600.00000 0 -6978494.905 -16735375.639 17944826.965 10 0 60951 22500.00000 0 -5227364.380 -15195574.762 19817812.743 10 0 60951 23400.00000 0 -3195962.487 -13674455.510 21306182.759 10 0 60951 24300.00000 0 -921292.012 -12229565.214 22381242.773 10 0 60951 25200.00000 0 1548884.723 -10911693.177 23022325.344 10 0 60951 26100.00000 0 4157792.871 -9762806.504 23217173.579 10 0 60951 27000.00000 0 6841769.660 -8814375.903 22962163.406 10 0 60951 27900.00000 0 9532679.101 -8086159.556 22262361.416 10 0 60951 28800.00000 0 12160517.657 -7585493.932 21131418.130 10 0 60951 29700.00000 0 14656104.237 -7307119.427 19591299.330 10 0 60951 30600.00000 0 16953744.582 -7233546.716 17671860.771 10 0 60951 31500.00000 0 18993761.157 -7335947.476 15410274.196 10 0 60951 32400.00000 0 20724785.154 -7575531.649 12850315.090 10 0 60951 33300.00000 0 22105716.778 -7905353.386 10041525.000 10 0 60951 34200.00000 0 23107273.353 -8272470.110 7038263.562 10 0 60951 35100.00000 0 23713061.525 -8620364.401 3898667.459 10 0 60951 36000.00000 0 23920129.203 -8891527.346 683535.394 10 0 60951 36900.00000 0 23738974.179 -9030094.975 -2544840.221 10 0 60951 37800.00000 0 23193008.783 -8984426.899 -5723872.917 10 0 60951 38700.00000 0 22317502.440 -8709518.276 -8791890.437 10 0 60951 39600.00000 0 21158045.757 -8169142.819 -11689328.412 10 0 60951 40500.00000 0 19768599.836 -7337635.496 -14359886.367 10 0 60951 41400.00000 0 18209211.891 -6201238.284 -16751623.557 10 0 60951 42300.00000 0 16543492.461 -4758950.420 -18817973.062 10 0 60951 43200.00000 0 14835959.612 -3022845.205 -20518654.142 10 0 60951 44100.00000 0 13149361.296 -1017837.566 -21820464.668 10 0 60951 45000.00000 0 11542088.159 1219090.313 -22697937.703 10 0 60951 45900.00000 0 10065785.482 3640175.275 -23133848.824 10 0 60951 46800.00000 0 8763264.698 6188619.760 -23119563.648 10 0 60951 47700.00000 0 7666802.535 8800727.466 -22655217.967 10 0 60951 48600.00000 0 6796899.615 11408340.230 -21749726.152 10 0 60951 49500.00000 0 6161551.013 13941475.317 -20420616.807 10 0 60951 50400.00000 0 5756059.689 16331053.269 -18693698.038 10 0 60951 51300.00000 0 5563400.671 18511602.355 -16602558.197 10 0 60951 52200.00000 0 5555120.349 20423826.106 -14187911.355 10 0 60951 53100.00000 0 5692732.338 22016925.908 -11496800.117 10 0 60951 54000.00000 0 5929549.966 23250580.693 -8581671.531 10 0 60951 54900.00000 0 6212876.585 24096500.247 -5499344.653 10 0 60951 55800.00000 0 6486459.437 24539486.696 -2309890.920 10 0 60951 56700.00000 0 6693101.390 24577959.817 924549.647 10 0 60951 57600.00000 0 6777318.171 24223924.780 4140991.914 10 0 60951 58500.00000 0 6687926.831 23502384.854 7276843.441 10 0 60951 59400.00000 0 6380454.471 22450225.357 10271131.205 10 0 60951 60300.00000 0 5819264.244 21114617.579 13065692.319 10 0 60951 61200.00000 0 4979308.136 19551011.652 15606304.888 10 0 60951 62100.00000 0 3847432.315 17820804.357 17843736.883 10 0 60951 63000.00000 0 2423180.126 15988781.072 19734693.025 10 0 60951 63900.00000 0 719059.293 14120439.891 21242642.096 10 0 60951 64800.00000 0 -1239737.535 12279310.134 22338509.914 10 0 60951 65700.00000 0 -3416146.883 10524376.866 23001226.037 10 0 60951 66600.00000 0 -5762549.099 8907717.944 23218115.233 10 0 60951 67500.00000 0 -8222528.957 7472450.576 22985127.692 10 0 60951 68400.00000 0 -10733009.523 6251071.137 22306904.904 10 0 60951 69300.00000 0 -13226671.493 5264255.360 21196680.926 10 0 60951 70200.00000 0 -15634558.759 4520166.913 19676021.559 10 0 60951 71100.00000 0 -17888763.500 4014301.377 17774406.618 10 0 60951 72000.00000 0 -19925080.836 3729870.669 15528663.090 10 0 60951 72900.00000 0 -21685524.292 3638710.806 12982259.503 10 0 60951 73800.00000 0 -23120598.860 3702674.384 10184474.184 10 0 60951 74700.00000 0 -24191238.105 3875449.248 7189452.446 10 0 60951 75600.00000 0 -24870325.332 4104727.089 4055169.809 10 0 60951 76500.00000 0 -25143735.680 4334631.135 842320.217 10 0 60951 77400.00000 0 -25010855.544 4508301.099 -2386850.090 10 0 60951 78300.00000 0 -24484557.176 4570526.708 -5569741.205 10 0 60951 79200.00000 0 -23590628.863 4470318.787 -8644607.954 10 0 60951 80100.00000 0 -22366683.646 4163309.115 -11551754.885 10 0 60951 81000.00000 0 -20860591.334 3613877.064 -14234694.719 10 0 60951 81900.00000 0 -19128498.581 2796912.160 -16641247.728 10 0 60951 82800.00000 0 -17232519.108 1699136.683 -18724560.395 10 0 60951 83700.00000 0 -15238190.136 319930.611 -20444023.261 10 0 60951 84600.00000 0 -13211801.049 -1328378.045 -21766069.699 10 0 60951 85500.00000 0 -11217705.850 -3220772.110 -22664839.531 10 0 60952 0.00000 0 -9315731.997 -5320344.744 -23122693.969 10 0 60952 900.00000 0 -7558793.157 -7579609.487 -23130571.326 10 0 60952 1800.00000 0 -5990808.586 -9942265.217 -22688175.259 10 0 60952 2700.00000 0 -4645013.183 -12345347.491 -21803991.862 10 0 60952 3600.00000 0 -3542731.809 -14721674.746 -20495133.678 10 0 60952 4500.00000 0 -2692668.472 -17002488.695 -18787013.211 10 0 60952 5400.00000 0 -2090740.303 -19120178.455 -16712851.523 10 0 60952 6300.00000 0 -1720462.968 -21010974.044 -14313031.026 10 0 60952 7200.00000 0 -1553870.641 -22617495.786 -11634304.940 10 0 60952 8100.00000 0 -1552930.677 -23891051.945 -8728878.977 10 0 60952 9000.00000 0 -1671391.871 -24793587.390 -5653383.737 10 0 60952 9900.00000 0 -1856986.474 -25299200.840 -2467758.790 10 0 60952 10800.00000 0 -2053890.910 -25395166.687 765928.571 10 0 60952 11700.00000 0 -2205339.037 -25082418.596 3984705.494 10 0 60952 12600.00000 0 -2256275.412 -24375475.244 7125931.312 10 0 60952 13500.00000 0 -2155934.544 -23301812.433 10128525.446 10 0 60952 14400.00000 0 -1860235.660 -21900709.449 12934160.490 10 0 60952 15300.00000 0 -1333890.854 -20221619.802 15488396.540 10 0 60952 16200.00000 0 -552137.114 -18322136.346 17741734.559 10 0 60952 17100.00000 0 497980.832 -16265637.494 19650568.652 10 0 60952 18000.00000 0 1816830.602 -14118714.061 21178019.554 10 0 60952 18900.00000 0 3391947.513 -11948484.731 22294634.416 10 0 60952 19800.00000 0 5198335.053 -9819912.033 22978940.844 10 0 60952 20700.00000 0 7199297.591 -7793229.902 23217846.065 10 0 60952 21600.00000 0 9347770.535 -5921588.607 23006875.081 10 0 60952 22500.00000 0 11588092.812 -4249013.222 22350244.583 10 0 60952 23400.00000 0 13858148.511 -2808758.526 21260772.217 10 0 60952 24300.00000 0 16091789.621 -1622126.600 19759623.603 10 0 60952 25200.00000 0 18221440.400 -697794.293 17875902.142 10 0 60952 26100.00000 0 20180776.478 -31676.764 15646089.301 10 0 60952 27000.00000 0 21907368.715 392668.660 13113345.553 10 0 60952 27900.00000 0 23345183.077 603116.181 10326684.549 10 0 60952 28800.00000 0 24446833.454 637562.179 7340035.440 10 0 60952 29700.00000 0 25175494.188 542092.059 4211210.347 10 0 60952 30600.00000 0 25506392.835 368800.251 1000795.868 10 0 60952 31500.00000 0 25427820.636 173354.790 -2229010.827 10 0 60952 32400.00000 0 24941617.990 12408.804 -5415599.491 10 0 60952 33300.00000 0 24063113.773 -59032.118 -8497155.232 10 0 60952 34200.00000 0 22820519.985 9824.501 -11413854.692 10 0 60952 35100.00000 0 21253805.869 263168.209 -14109026.839 10 0 60952 36000.00000 0 19413097.398 736473.234 -16530255.825 10 0 60952 36900.00000 0 17356667.981 1454753.879 -18630404.159 10 0 60952 37800.00000 0 15148603.418 2431262.890 -20368536.039 10 0 60952 38700.00000 0 12856237.960 3666689.578 -21710722.450 10 0 60952 39600.00000 0 10547468.079 5148893.656 -22630711.817 10 0 60952 40500.00000 0 8288055.892 6853188.282 -23110452.578 10 0 60952 41400.00000 0 6139034.766 8743162.730 -23140456.807 10 0 60952 42300.00000 0 4154325.585 10772012.272 -22719997.008 10 0 60952 43200.00000 0 2378663.498 12884321.297 -21857131.428 10 0 60952 44100.00000 0 845921.995 15018226.359 -20568556.541 10 0 60952 45000.00000 0 -422095.345 17107869.325 -18879288.746 10 0 60952 45900.00000 0 -1416344.910 19086038.186 -16822180.814 10 0 60952 46800.00000 0 -2140686.226 20886884.656 -14437282.014 10 0 60952 47700.00000 0 -2611472.862 22448603.960 -11771054.205 10 0 60952 48600.00000 0 -2856609.304 23715963.472 -8875459.362 10 0 60952 49500.00000 0 -2914114.942 24642573.006 -5806936.832 10 0 60952 50400.00000 0 -2830257.488 25192800.403 -2625291.206 10 0 60952 51300.00000 0 -2657336.725 25343251.189 607486.291 10 0 60952 52200.00000 0 -2451214.384 25083749.748 3828438.555 10 0 60952 53100.00000 0 -2268696.810 24417780.910 6974880.192 10 0 60952 54000.00000 0 -2164883.059 23362374.018 9985626.493 10 0 60952 54900.00000 0 -2190592.223 21947435.392 12802188.806 10 0 60952 55800.00000 0 -2389979.926 20214558.598 15369912.277 10 0 60952 56700.00000 0 -2798445.320 18215363.853 17639033.666 10 0 60952 57600.00000 0 -3440917.099 16009437.504 19565638.989 10 0 60952 58500.00000 0 -4330590.515 13661958.844 21112503.150 10 0 60952 59400.00000 0 -5468168.040 11241113.988 22249796.533 10 0 60952 60300.00000 0 -6841634.978 8815404.678 22955646.338 10 0 60952 61200.00000 0 -8426578.880 6450963.546 23216543.408 10 0 60952 62100.00000 0 -10187039.090 4208986.334 23027588.281 10 0 60952 63000.00000 0 -12076850.926 2143386.147 22392573.083 10 0 60952 63900.00000 0 -14041428.750 298765.170 21323898.758 10 0 60952 64800.00000 0 -16019914.335 -1291214.029 19842329.890 10 0 60952 65700.00000 0 -17947602.081 -2604992.185 17976592.044 10 0 60952 66600.00000 0 -19758541.295 -3633765.557 15762819.192 10 0 60952 67500.00000 0 -21388208.432 -4381601.290 13243861.268 10 0 60952 68400.00000 0 -22776139.256 -4865012.443 10468464.340 10 0 60952 69300.00000 0 -23868412.121 -5112011.327 7490338.146 10 0 60952 70200.00000 0 -24619879.521 -5160681.322 4367127.935 10 0 60952 71100.00000 0 -24996055.009 -5057327.191 1159309.345 10 0 60952 72000.00000 0 -24974576.499 -4854281.529 -2070973.166 10 0 60952 72900.00000 0 -24546184.198 -4607459.429 -5261102.622 10 0 60952 73800.00000 0 -23715171.331 -4373764.161 -8349197.920 10 0 60952 74700.00000 0 -22499287.571 -4208453.222 -11275311.139 10 0 60952 75600.00000 0 -20929097.787 -4162576.039 -13982590.630 10 0 60952 76500.00000 0 -19046821.449 -4280591.973 -16418387.252 10 0 60952 77400.00000 0 -16904699.781 -4598270.004 -18535281.991 10 0 60952 78300.00000 0 -14562957.560 -5140959.922 -20292014.692 10 0 60952 79200.00000 0 -12087443.566 -5922309.522 -21654295.391 10 0 60952 80100.00000 0 -9547047.334 -6943483.670 -22595481.961 10 0 60952 81000.00000 0 -7010999.356 -8192920.197 -23097110.278 10 0 60952 81900.00000 0 -4546167.027 -9646634.986 -23149265.890 10 0 60952 82800.00000 0 -2214458.992 -11269065.464 -22750789.180 10 0 60952 83700.00000 0 -70446.275 -13014418.907 -21909309.180 10 0 60952 84600.00000 0 1840700.401 -14828470.404 -20641104.519 10 0 60952 85500.00000 0 3484870.743 -16650736.035 -18970793.413 10 0 60953 0.00000 0 4840202.907 -18416930.373 -16930858.210 10 0 60953 900.00000 0 5897750.512 -20061606.038 -14561012.150 10 0 60953 1800.00000 0 6661599.399 -21520861.556 -11907423.258 10 0 60953 2700.00000 0 7148432.507 -22735005.990 -9021807.046 10 0 60953 3600.00000 0 7386560.579 -23651064.804 -5960408.855 10 0 60953 4500.00000 0 7414461.962 -24225021.308 -2782895.574 10 0 60953 5400.00000 0 7278894.961 -24423698.156 448820.302 10 0 60953 6300.00000 0 7032664.654 -24226198.971 3671799.969 10 0 60953 7200.00000 0 6732140.797 -23624849.055 6823315.705 10 0 60953 8100.00000 0 6434633.892 -22625595.777 9842080.903 10 0 60953 9000.00000 0 6195742.189 -21247852.370 12669447.693 10 0 60953 9900.00000 0 6066783.199 -19523792.680 15250548.080 10 0 60953 10800.00000 0 6092419.086 -17497127.618 17535356.189 10 0 60953 11700.00000 0 6308576.510 -15221415.767 19479651.257 10 0 60953 12600.00000 0 6740748.476 -12757979.835 21045863.411 10 0 60953 13500.00000 0 7402749.120 -10173516.634 22203787.053 10 0 60953 14400.00000 0 8295973.033 -7537500.379 22931149.509 10 0 60953 15300.00000 0 9409189.396 -4919487.034 23214025.534 10 0 60953 16200.00000 0 10718878.888 -2386430.796 23047091.278 10 0 60953 17100.00000 0 12190098.826 -122.664 22433714.191 10 0 60953 18000.00000 0 13777840.364 2185144.429 21385878.231 10 0 60953 18900.00000 0 15428821.378 4124589.190 19923946.501 10 0 60953 19800.00000 0 17083640.935 5784552.877 18076266.117 10 0 60953 20700.00000 0 18679206.437 7143642.716 15878622.753 10 0 60953 21600.00000 0 20151333.295 8193362.208 13373554.800 10 0 60953 22500.00000 0 21437409.832 8938203.596 10609539.467 10 0 60953 23400.00000 0 22479017.112 9395199.797 7640065.533 10 0 60953 24300.00000 0 23224395.024 9592955.259 4522609.516 10 0 60953 25200.00000 0 23630651.882 9570196.681 1317533.944 10 0 60953 26100.00000 0 23665625.035 9373904.456 -1913071.860 10 0 60953 27000.00000 0 23309314.116 9057103.213 -5106586.810 10 0 60953 27900.00000 0 22554825.965 8676404.200 -8201066.337 10 0 60953 28800.00000 0 21408790.346 8289402.864 -11136440.726 10 0 60953 29700.00000 0 19891227.489 7952041.325 -13855680.415 10 0 60953 30600.00000 0 18034871.232 7716047.188 -16305905.563 10 0 60953 31500.00000 0 15883974.319 7626557.273 -18439418.071 10 0 60953 32400.00000 0 13492644.086 7720027.350 -20214635.681 10 0 60953 33300.00000 0 10922776.484 8022517.181 -21596909.570 10 0 60953 34200.00000 0 8241673.423 8548424.646 -22559208.968 10 0 60953 35100.00000 0 5519441.795 9299723.953 -23082658.894 10 0 60953 36000.00000 0 2826281.923 10265741.810 -23156919.841 10 0 60953 36900.00000 0 229778.095 11423482.834 -22780401.235 10 0 60953 37800.00000 0 -2207696.025 12738492.152 -21960303.680 10 0 60953 38700.00000 0 -4431348.887 14166220.398 -20712488.321 10 0 60953 39600.00000 0 -6396020.320 15653834.770 -19061175.056 10 0 60953 40500.00000 0 -8067822.880 17142400.571 -17038474.790 10 0 60953 41400.00000 0 -9425306.676 18569341.618 -14683764.334 10 0 60953 42300.00000 0 -10460099.144 19871075.561 -12042915.948 10 0 60953 43200.00000 0 -11176993.574 20985712.358 -9167396.655 10 0 60953 44100.00000 0 -11593483.690 21855701.131 -6113255.392 10 0 60953 45000.00000 0 -11738765.333 22430312.568 -2940018.637 10 0 60953 45900.00000 0 -11652249.135 22667850.970 290482.790 10 0 60953 46800.00000 0 -11381649.038 22537501.659 3515331.503 10 0 60953 47700.00000 0 -10980729.652 22020735.122 6671760.675 10 0 60953 48600.00000 0 -10506809.837 21112208.456 9698385.055 10 0 60953 49500.00000 0 -10018130.014 19820126.298 12536400.778 10 0 60953 50400.00000 0 -9571196.084 18166046.639 15130729.837 10 0 60953 51300.00000 0 -9218213.229 16184140.492 17431086.705 10 0 60953 52200.00000 0 -9004718.436 13919937.399 19392946.626 10 0 60953 53100.00000 0 -8967511.522 11428610.204 20978397.507 10 0 60953 54000.00000 0 -9132971.252 8772871.373 22156860.044 10 0 60953 54900.00000 0 -9515826.477 6020568.830 22905663.651 10 0 60953 55800.00000 0 -10118432.865 3242081.161 23210468.601 10 0 60953 56700.00000 0 -10930584.490 507619.667 23065527.856 10 0 60953 57600.00000 0 -11929867.334 -2115452.016 22473784.938 10 0 60953 58500.00000 0 -13082539.357 -4565171.239 21446807.067 10 0 60953 59400.00000 0 -14344900.179 -6787298.725 20004555.582 10 0 60953 60300.00000 0 -15665093.410 -8737315.877 18174998.321 10 0 60953 61200.00000 0 -16985266.913 -10382016.215 15993571.279 10 0 60953 62100.00000 0 -18244001.627 -11700626.827 13502499.395 10 0 60953 63000.00000 0 -19378908.423 -12685414.836 10749988.644 10 0 60953 63900.00000 0 -20329285.379 -13341754.925 7789304.056 10 0 60953 64800.00000 0 -21038725.051 -13687655.967 4677750.291 10 0 60953 65700.00000 0 -21457563.104 -13752767.083 1475573.385 10 0 60953 66600.00000 0 -21545065.738 -13576904.887 -1755196.030 10 0 60953 67500.00000 0 -21271263.888 -13208163.651 -4951936.429 10 0 60953 68400.00000 0 -20618356.430 -12700687.546 -8052643.478 10 0 60953 69300.00000 0 -19581622.273 -12112198.432 -10997129.353 10 0 60953 70200.00000 0 -18169801.479 -11501383.119 -13728190.150 10 0 60953 71100.00000 0 -16404927.554 -10925250.146 -16192718.697 10 0 60953 72000.00000 0 -14321615.905 -10436567.743 -18342740.862 10 0 60953 72900.00000 0 -11965836.203 -10081491.437 -20136354.923 10 0 60953 73800.00000 0 -9393218.035 -9897482.124 -21538555.302 10 0 60953 74700.00000 0 -6666958.902 -9911603.356 -22521924.078 10 0 60953 75600.00000 0 -3855420.410 -10139270.921 -23067176.259 10 0 60953 76500.00000 0 -1029511.770 -10583508.755 -23163547.472 10 0 60953 77400.00000 0 1740031.033 -11234744.076 -22809015.766 10 0 60953 78300.00000 0 4385357.467 -12071151.784 -22010352.353 10 0 60953 79200.00000 0 6844093.143 -13059534.937 -20782999.465 10 0 60953 80100.00000 0 9061700.830 -14156705.211 -19150776.866 10 0 60953 81000.00000 0 10993513.089 -15311305.838 -17145422.056 10 0 60953 81900.00000 0 12606351.494 -16466000.389 -14805972.604 10 0 60953 82800.00000 0 13879664.667 -17559934.842 -12178002.458 10 0 60953 83700.00000 0 14806137.832 -18531368.361 -9312727.219 10 0 60953 84600.00000 0 15391748.979 -19320360.707 -6265996.304 10 0 60953 85500.00000 0 15655270.440 -19871401.514 -3097192.541 99